• In Hungary
  • List of Countries
  • For 7 days
  • Water Temperature
  • Satellite Maps
  • Weather Map
  • News
  • Weather Widgets
  • user-avatar
    Login

    Hourly Weather Kōriyama

    Today, 20 October, Saturday

    Time Temperature Precipitation Wind Pressure Humidity
    00:00 +21°C° 0.1 mm 1 mps 674 mmHg 41%
    01:00 +20°C° 0 mm 1 mps 674 mmHg 42%
    02:00 +19°C° 0 mm 2 mps 673 mmHg 43%
    03:00 +18°C° 0 mm 2 mps 674 mmHg 45%
    04:00 +18°C° 0 mm 2 mps 674 mmHg 47%
    05:00 +17°C° 0 mm 2 mps 674 mmHg 48%
    06:00 +17°C° 0 mm 2 mps 674 mmHg 50%
    07:00 +18°C° 0 mm 2 mps 674 mmHg 47%
    08:00 +19°C° 0 mm 2 mps 674 mmHg 44%
    09:00 +20°C° 0 mm 2 mps 675 mmHg 42%
    10:00 +21°C° 0.1 mm 2 mps 675 mmHg 40%
    11:00 +21°C° 0.1 mm 2 mps 675 mmHg 38%
    12:00 +23°C° 0.1 mm 2 mps 675 mmHg 36%
    13:00 +24°C° 0 mm 3 mps 675 mmHg 36%
    14:00 +24°C° 0 mm 3 mps 674 mmHg 35%
    15:00 +24°C° 0 mm 3 mps 674 mmHg 34%
    16:00 +24°C° 0.1 mm 3 mps 674 mmHg 36%
    17:00 +23°C° 0.1 mm 2 mps 674 mmHg 39%
    18:00 +21°C° 0.1 mm 2 mps 673 mmHg 41%
    19:00 +22°C° 0.4 mm 1 mps 673 mmHg 44%
    20:00 +21°C° 0.4 mm 1 mps 673 mmHg 46%
    21:00 +21°C° 0.4 mm 1 mps 673 mmHg 49%
    22:00 +20°C° 0.3 mm 1 mps 673 mmHg 50%
    23:00 +20°C° 0.3 mm 1 mps 673 mmHg 52%

    Tomorrow, 21 October, Sunday

    Time Temperature Precipitation Wind Pressure Humidity
    00:00 +19°C° 0.3 mm 1 mps 672 mmHg 53%
    01:00 +19°C° 0.4 mm 1 mps 672 mmHg 54%
    02:00 +19°C° 0.4 mm 1 mps 672 mmHg 55%
    03:00 +19°C° 0.4 mm 1 mps 672 mmHg 56%
    04:00 +17°C° 0.1 mm 2 mps 672 mmHg 57%
    05:00 +17°C° 0.1 mm 2 mps 672 mmHg 57%
    06:00 +17°C° 0.1 mm 2 mps 672 mmHg 58%
    07:00 +18°C° 0.1 mm 3 mps 672 mmHg 57%
    08:00 +18°C° 0.1 mm 3 mps 672 mmHg 55%
    09:00 +18°C° 0.1 mm 4 mps 673 mmHg 54%
    10:00 +19°C° 0 mm 4 mps 673 mmHg 52%
    11:00 +20°C° 0 mm 5 mps 673 mmHg 51%
    12:00 +20°C° 0 mm 5 mps 673 mmHg 49%
    13:00 +20°C° 0.1 mm 4 mps 673 mmHg 49%
    14:00 +21°C° 0.1 mm 4 mps 673 mmHg 48%
    15:00 +21°C° 0.1 mm 4 mps 673 mmHg 48%
    16:00 +20°C° 0.9 mm 3 mps 673 mmHg 51%
    17:00 +19°C° 0.9 mm 3 mps 672 mmHg 55%
    18:00 +19°C° 0.9 mm 3 mps 672 mmHg 58%
    19:00 +18°C° 1.6 mm 3 mps 672 mmHg 62%
    20:00 +18°C° 1.6 mm 3 mps 672 mmHg 65%
    21:00 +17°C° 1.6 mm 3 mps 672 mmHg 69%
    22:00 +17°C° 1.2 mm 3 mps 673 mmHg 70%
    23:00 +17°C° 1.2 mm 2 mps 673 mmHg 71%

    Day after tomorrow, 22 October, Monday

    Time Temperature Precipitation Wind Pressure Humidity
    00:00 +16°C° 1.2 mm 2 mps 673 mmHg 72%
    01:00 +16°C° 0.3 mm 2 mps 673 mmHg 73%
    02:00 +16°C° 0.3 mm 2 mps 673 mmHg 73%
    03:00 +16°C° 0.3 mm 2 mps 673 mmHg 73%
    04:00 +16°C° 0.1 mm 2 mps 673 mmHg 74%
    05:00 +16°C° 0.1 mm 2 mps 673 mmHg 75%
    06:00 +15°C° 0.1 mm 2 mps 673 mmHg 76%
    07:00 +16°C° 0.1 mm 2 mps 673 mmHg 72%
    08:00 +17°C° 0.1 mm 2 mps 674 mmHg 68%
    09:00 +17°C° 0.1 mm 2 mps 674 mmHg 65%
    10:00 +18°C° 0 mm 3 mps 674 mmHg 62%
    11:00 +19°C° 0 mm 3 mps 674 mmHg 60%
    12:00 +19°C° 0 mm 3 mps 674 mmHg 58%
    13:00 +20°C° 0 mm 3 mps 674 mmHg 57%
    14:00 +20°C° 0 mm 3 mps 674 mmHg 57%
    15:00 +20°C° 0 mm 3 mps 674 mmHg 56%
    16:00 +20°C° 0.1 mm 2 mps 674 mmHg 59%
    17:00 +19°C° 0.1 mm 2 mps 674 mmHg 61%
    18:00 +19°C° 0.1 mm 2 mps 674 mmHg 64%
    19:00 +18°C° 0.2 mm 2 mps 674 mmHg 66%
    20:00 +18°C° 0.2 mm 2 mps 674 mmHg 69%
    21:00 +17°C° 0.2 mm 2 mps 674 mmHg 71%
    22:00 +18°C° 0.2 mm 1 mps 674 mmHg 72%
    23:00 +18°C° 0.2 mm 1 mps 674 mmHg 72%

    23 October, Tuesday

    Time Temperature Precipitation Wind Pressure Humidity
    00:00 +18°C° 0.2 mm 1 mps 674 mmHg 73%
    01:00 +18°C° 0.2 mm 1 mps 674 mmHg 74%
    02:00 +16°C° 0.2 mm 1 mps 674 mmHg 75%
    03:00 +16°C° 0.2 mm 1 mps 674 mmHg 76%
    04:00 +16°C° 0.4 mm 1 mps 674 mmHg 78%
    05:00 +16°C° 0.4 mm 1 mps 674 mmHg 79%
    06:00 +15°C° 0.4 mm 1 mps 674 mmHg 81%
    07:00 +16°C° 1 mm 2 mps 674 mmHg 77%
    08:00 +17°C° 1 mm 2 mps 675 mmHg 73%
    09:00 +18°C° 1 mm 2 mps 675 mmHg 69%
    10:00 +19°C° 0.9 mm 2 mps 675 mmHg 64%
    11:00 +20°C° 0.9 mm 3 mps 675 mmHg 58%
    12:00 +21°C° 0.9 mm 3 mps 675 mmHg 53%
    13:00 +21°C° 0.1 mm 3 mps 675 mmHg 50%
    14:00 +21°C° 0.1 mm 3 mps 675 mmHg 48%
    15:00 +23°C° 0.1 mm 2 mps 674 mmHg 45%
    16:00 +21°C° 0.4 mm 2 mps 674 mmHg 48%
    17:00 +20°C° 0.4 mm 2 mps 674 mmHg 52%
    18:00 +20°C° 0.4 mm 2 mps 674 mmHg 55%
    19:00 +19°C° 0.9 mm 2 mps 674 mmHg 58%
    20:00 +19°C° 0.9 mm 2 mps 674 mmHg 60%
    21:00 +18°C° 0.9 mm 2 mps 674 mmHg 63%
    22:00 +18°C° 0.7 mm 2 mps 674 mmHg 64%
    23:00 +18°C° 0.7 mm 2 mps 674 mmHg 65%

    24 October, Wednesday

    Time Temperature Precipitation Wind Pressure Humidity
    00:00 +17°C° 0.7 mm 2 mps 673 mmHg 66%
    01:00 +17°C° 1.6 mm 2 mps 673 mmHg 68%
    02:00 +17°C° 1.6 mm 2 mps 673 mmHg 71%
    03:00 +16°C° 1.6 mm 3 mps 672 mmHg 73%
    04:00 +16°C° 1.3 mm 3 mps 672 mmHg 74%
    05:00 +16°C° 1.3 mm 3 mps 672 mmHg 76%
    06:00 +15°C° 1.3 mm 4 mps 672 mmHg 77%
    07:00 +15°C° 0.3 mm 4 mps 672 mmHg 74%
    08:00 +17°C° 0.3 mm 4 mps 672 mmHg 72%
    09:00 +17°C° 0.3 mm 4 mps 673 mmHg 69%
    10:00 +17°C° 0.4 mm 5 mps 672 mmHg 66%
    11:00 +17°C° 0.4 mm 6 mps 672 mmHg 63%
    12:00 +19°C° 0.4 mm 6 mps 672 mmHg 60%
    13:00 +19°C° 0.4 mm 6 mps 672 mmHg 60%
    14:00 +19°C° 0.4 mm 6 mps 671 mmHg 60%
    15:00 +19°C° 0.4 mm 6 mps 671 mmHg 60%
    16:00 +19°C° 0.2 mm 6 mps 671 mmHg 61%
    17:00 +17°C° 0.2 mm 6 mps 670 mmHg 63%
    18:00 +17°C° 0.2 mm 6 mps 670 mmHg 64%
    19:00 +16°C° 0.9 mm 5 mps 670 mmHg 67%
    20:00 +16°C° 0.9 mm 5 mps 669 mmHg 69%
    21:00 +15°C° 0.9 mm 4 mps 669 mmHg 72%
    22:00 +15°C° 1.3 mm 4 mps 669 mmHg 73%
    23:00 +15°C° 1.3 mm 4 mps 669 mmHg 74%

    25 October, Thursday

    Time Temperature Precipitation Wind Pressure Humidity
    00:00 +14°C° 1.3 mm 3 mps 668 mmHg 76%
    01:00 +14°C° 0.7 mm 3 mps 668 mmHg 76%
    02:00 +14°C° 0.7 mm 3 mps 668 mmHg 77%
    03:00 +14°C° 0.7 mm 3 mps 668 mmHg 78%
    04:00 +14°C° 0.7 mm 3 mps 667 mmHg 78%
    05:00 +14°C° 0.7 mm 3 mps 667 mmHg 77%
    06:00 +13°C° 0.7 mm 3 mps 667 mmHg 77%
    07:00 +14°C° 0.4 mm 4 mps 667 mmHg 74%
    08:00 +15°C° 0.4 mm 5 mps 668 mmHg 71%
    09:00 +15°C° 0.4 mm 6 mps 668 mmHg 67%
    10:00 +16°C° 0.3 mm 6 mps 668 mmHg 64%
    11:00 +17°C° 0.3 mm 6 mps 668 mmHg 61%
    12:00 +18°C° 0.3 mm 7 mps 668 mmHg 58%
    13:00 +18°C° 0.2 mm 7 mps 667 mmHg 56%
    14:00 +18°C° 0.2 mm 7 mps 667 mmHg 53%
    15:00 +18°C° 0.2 mm 7 mps 667 mmHg 51%
    16:00 +17°C° 0.3 mm 7 mps 667 mmHg 55%
    17:00 +16°C° 0.3 mm 6 mps 666 mmHg 58%
    18:00 +15°C° 0.3 mm 5 mps 666 mmHg 62%
    19:00 +15°C° 0.6 mm 5 mps 666 mmHg 66%
    20:00 +15°C° 0.6 mm 4 mps 666 mmHg 70%
    21:00 +14°C° 0.6 mm 4 mps 666 mmHg 74%
    22:00 +14°C° 0.5 mm 4 mps 665 mmHg 75%
    23:00 +14°C° 0.5 mm 3 mps 665 mmHg 76%
    Show more